Location: Unspecified
(0.0000°N, 0.0000°E)
Time: 14:30:25
(UTC+00:00)

CZ-3C DEB - Pass Details

Date: 21 February 2026
Orbit: 380 x 28980 km, 20.3° (Epoch: 21 March)

Event Time Altitude Azimuth Distance (km) Brightness Sun altitude
Rises 11:53:03 0° 235° (SW) 4,564 ? 78.4°
Reaches altitude 10° 11:54:56 10° 230° (SW) 4,156 ? 78.6°
Maximum altitude 12:08:19 60° 148° (SSE) 5,248 ? 79.5°
Drops below altitude 10° 18:59:37 10° 69° (ENE) 14,264 ? -11.3°
Enters shadow 19:00:05 10° 69° (ENE) 14,201 ? -11.4°
